User: anonymous   Login
Location: Unspecified
(0.0000°N, 0.0000°E)
Time: 18:52:41
(UTC+00:00)
Language:

Kosmos-2239 - Orbit

View from above orbital plane
View from above orbital plane
View from above satellite
View from above satellite

Ground track
Ground track

The orbit data is extracted from the following two-line orbital elements,

1 22590U 93020A   17084.61564463 +.00000050 +00000-0 +36396-4 0  9993
2 22590 082.9292 123.5333 0022555 344.5747 125.2933 13.75377141203431
Epoch (UTC): 25 March 2017 14:46:31
Eccentricity: 0.0022555
inclination: 82.9292°
perigee height: 964 km
apogee height: 997 km
right ascension of ascending node: 123.5333°
argument of perigee: 344.5747°
revolutions per day: 13.75377141
mean anomaly at epoch: 125.2933°
orbit number at epoch: 20343

The dashed part of the orbit path shows where the satellite is in the earth's shadow,  

DLR